Time,TemperatureF,DewpointF,PressureIn,WindDirection,WindDirectionDegrees,WindSpeedMPH,WindSpeedGustMPH,Humidity,HourlyPrecipIn,Conditions,Clouds,dailyrainin,SoftwareType,DateUTC
2013-08-23 00:00:00,68.1,55.9,29.83,West,274,0.0,0.0,65,0.00,,---,0.00,VWS V14.01,2013-08-23 07:00:00,
2013-08-23 00:05:00,68.0,56.2,29.83,West,273,0.0,0.0,66,0.00,,---,0.00,VWS V14.01,2013-08-23 07:05:00,
2013-08-23 00:10:00,68.0,56.2,29.83,West,273,0.0,0.0,66,0.00,,---,0.00,VWS V14.01,2013-08-23 07:10:00,
2013-08-23 00:15:00,68.1,56.3,29.84,West,273,0.0,0.0,66,0.00,,---,0.00,VWS V14.01,2013-08-23 07:15:00,
2013-08-23 00:20:00,68.2,56.4,29.84,West,273,0.0,0.0,66,0.00,,---,0.00,VWS V14.01,2013-08-23 07:20:00,
2013-08-23 00:25:00,68.2,56.4,29.83,West,273,0.0,0.0,66,0.00,,---,0.00,VWS V14.01,2013-08-23 07:25:00,
2013-08-23 00:30:00,68.2,56.4,29.84,West,272,0.0,0.0,66,0.00,,---,0.00,VWS V14.01,2013-08-23 07:30:00,
2013-08-23 00:35:00,68.1,56.3,29.84,West,272,0.0,0.0,66,0.00,,---,0.00,VWS V14.01,2013-08-23 07:35:00,
2013-08-23 00:40:00,68.2,56.0,29.84,South,186,0.0,0.0,65,0.00,,---,0.00,VWS V14.01,2013-08-23 07:40:00,
2013-08-23 00:45:00,68.4,56.2,29.84,SSW,213,0.0,0.0,65,0.00,,---,0.00,VWS V14.01,2013-08-23 07:45:00,
2013-08-23 00:50:00,68.4,56.2,29.84,WSW,248,0.0,0.0,65,0.00,,---,0.00,VWS V14.01,2013-08-23 07:50:00,
2013-08-23 00:55:00,68.3,56.1,29.84,WSW,246,0.0,0.0,65,0.00,,---,0.00,VWS V14.01,2013-08-23 07:55:00,
2013-08-23 01:00:00,68.2,56.0,29.84,WNW,296,0.0,0.0,65,0.00,,---,0.00,VWS V14.01,2013-08-23 08:00:00,
2013-08-23 01:05:00,68.0,55.8,29.84,WNW,295,0.0,0.0,65,0.00,,---,0.00,VWS V14.01,2013-08-23 08:05:00,
2013-08-23 01:10:00,67.9,56.1,29.84,West,275,0.0,0.0,66,0.00,,---,0.00,VWS V14.01,2013-08-23 08:10:00,
2013-08-23 01:15:00,67.7,56.0,29.84,West,262,0.0,0.0,66,0.00,,---,0.00,VWS V14.01,2013-08-23 08:15:00,
2013-08-23 01:20:00,67.4,56.1,29.85,SSW,200,0.0,0.0,67,0.00,,---,0.00,VWS V14.01,2013-08-23 08:20:00,
2013-08-23 01:25:00,67.2,55.9,29.85,South,185,0.0,0.0,67,0.00,,---,0.00,VWS V14.01,2013-08-23 08:25:00,
2013-08-23 01:30:00,66.8,55.9,29.85,NW,325,0.0,0.0,68,0.00,,---,0.00,VWS V14.01,2013-08-23 08:30:00,
2013-08-23 01:35:00,66.6,56.1,29.85,SSW,197,0.0,0.0,69,0.00,,---,0.00,VWS V14.01,2013-08-23 08:35:00,
2013-08-23 01:40:00,66.4,56.3,29.85,West,265,0.0,0.0,70,0.00,,---,0.00,VWS V14.01,2013-08-23 08:40:00,
2013-08-23 01:45:00,66.2,56.1,29.85,SE,130,0.0,0.0,70,0.00,,---,0.00,VWS V14.01,2013-08-23 08:45:00,
2013-08-23 01:50:00,66.1,56.0,29.85,WSW,254,0.0,0.0,70,0.00,,---,0.00,VWS V14.01,2013-08-23 08:50:00,
2013-08-23 01:55:00,65.6,56.3,29.85,West,275,0.0,0.0,72,0.00,,---,0.00,VWS V14.01,2013-08-23 08:55:00,
2013-08-23 02:00:00,65.3,56.0,29.85,NNW,346,0.0,0.0,72,0.00,,---,0.00,VWS V14.01,2013-08-23 09:00:00,
2013-08-23 02:05:00,65.1,56.2,29.85,WSW,255,0.0,0.0,73,0.00,,---,0.00,VWS V14.01,2013-08-23 09:05:00,
2013-08-23 02:10:00,65.1,56.6,29.85,SSE,147,0.0,0.0,74,0.00,,---,0.00,VWS V14.01,2013-08-23 09:10:00,
2013-08-23 02:15:00,65.0,56.5,29.86,SE,140,0.0,0.0,74,0.00,,---,0.00,VWS V14.01,2013-08-23 09:15:00,
2013-08-23 02:20:00,64.9,56.4,29.86,SSE,148,0.0,0.0,74,0.00,,---,0.00,VWS V14.01,2013-08-23 09:20:00,
2013-08-23 02:25:00,64.7,56.6,29.86,SE,134,0.0,0.0,75,0.00,,---,0.00,VWS V14.01,2013-08-23 09:25:00,
2013-08-23 02:30:00,64.5,56.8,29.86,SSE,155,0.0,0.0,76,0.00,,---,0.00,VWS V14.01,2013-08-23 09:30:00,
2013-08-23 02:35:00,64.3,56.6,29.86,NW,312,0.0,0.0,76,0.00,,---,0.00,VWS V14.01,2013-08-23 09:35:00,
2013-08-23 02:40:00,63.9,56.6,29.86,SSE,168,0.0,0.0,77,0.00,,---,0.00,VWS V14.01,2013-08-23 09:40:00,
2013-08-23 02:45:00,63.4,56.8,29.87,West,273,0.0,0.0,79,0.00,,---,0.00,VWS V14.01,2013-08-23 09:45:00,
2013-08-23 02:50:00,63.0,56.7,29.87,WNW,295,0.0,0.0,80,0.00,,---,0.00,VWS V14.01,2013-08-23 09:50:00,
2013-08-23 02:55:00,62.3,56.7,29.86,West,273,0.0,0.0,82,0.00,,---,0.00,VWS V14.01,2013-08-23 09:55:00,
2013-08-23 03:00:00,61.8,56.6,29.87,West,271,0.0,0.0,83,0.00,,---,0.00,VWS V14.01,2013-08-23 10:00:00,
2013-08-23 03:05:00,61.5,57.0,29.87,WNW,297,0.0,0.0,85,0.00,,---,0.00,VWS V14.01,2013-08-23 10:05:00,
2013-08-23 03:10:00,61.4,56.9,29.87,WSW,258,0.0,0.0,85,0.00,,---,0.00,VWS V14.01,2013-08-23 10:10:00,
2013-08-23 03:15:00,61.4,56.9,29.87,WNW,289,0.0,0.0,85,0.00,,---,0.00,VWS V14.01,2013-08-23 10:15:00,
2013-08-23 03:20:00,61.4,56.9,29.87,WNW,292,0.0,0.0,85,0.00,,---,0.00,VWS V14.01,2013-08-23 10:20:00,
2013-08-23 03:25:00,61.5,57.0,29.87,ENE,69,0.0,0.0,85,0.00,,---,0.00,VWS V14.01,2013-08-23 10:25:00,
2013-08-23 03:30:00,61.5,57.0,29.88,South,173,0.0,0.0,85,0.00,,---,0.00,VWS V14.01,2013-08-23 10:30:00,
2013-08-23 03:35:00,61.5,57.0,29.88,SE,140,0.0,0.0,85,0.00,,---,0.00,VWS V14.01,2013-08-23 10:35:00,
2013-08-23 03:40:00,61.5,57.3,29.88,ENE,75,0.0,0.0,86,0.00,,---,0.00,VWS V14.01,2013-08-23 10:40:00,
2013-08-23 03:45:00,61.5,57.3,29.88,NE,44,0.0,0.0,86,0.00,,---,0.00,VWS V14.01,2013-08-23 10:45:00,
2013-08-23 03:50:00,61.5,57.3,29.87,NE,55,0.0,0.0,86,0.00,,---,0.00,VWS V14.01,2013-08-23 10:50:00,
2013-08-23 03:55:00,61.5,57.3,29.87,NE,48,0.0,0.0,86,0.00,,---,0.00,VWS V14.01,2013-08-23 10:55:00,
2013-08-23 04:00:00,61.5,57.3,29.87,NE,45,0.0,0.0,86,0.00,,---,0.00,VWS V14.01,2013-08-23 11:00:00,
2013-08-23 04:05:00,61.6,57.4,29.87,ENE,65,0.0,0.0,86,0.00,,---,0.00,VWS V14.01,2013-08-23 11:05:00,
2013-08-23 04:10:00,61.6,57.4,29.87,SE,144,0.0,0.0,86,0.00,,---,0.00,VWS V14.01,2013-08-23 11:10:00,
2013-08-23 04:15:00,61.6,57.4,29.87,South,182,0.0,0.0,86,0.00,,---,0.00,VWS V14.01,2013-08-23 11:15:00,
2013-08-23 04:20:00,61.6,57.4,29.87,SSE,152,0.0,0.0,86,0.00,,---,0.00,VWS V14.01,2013-08-23 11:20:00,
2013-08-23 04:25:00,61.7,57.5,29.87,SE,138,0.0,0.0,86,0.00,,---,0.00,VWS V14.01,2013-08-23 11:25:00,
2013-08-23 04:30:00,61.7,57.5,29.87,SSW,200,0.0,0.0,86,0.00,,---,0.00,VWS V14.01,2013-08-23 11:30:00,
2013-08-23 04:35:00,61.8,57.6,29.87,SE,126,0.0,0.0,86,0.00,,---,0.00,VWS V14.01,2013-08-23 11:35:00,
2013-08-23 04:40:00,61.8,57.6,29.87,WSW,250,0.0,0.0,86,0.00,,---,0.00,VWS V14.01,2013-08-23 11:40:00,
2013-08-23 04:45:00,61.8,57.6,29.87,South,175,0.0,0.0,86,0.00,,---,0.00,VWS V14.01,2013-08-23 11:45:00,
2013-08-23 04:50:00,61.9,57.7,29.87,SSE,158,0.0,0.0,86,0.00,,---,0.00,VWS V14.01,2013-08-23 11:50:00,
2013-08-23 04:55:00,62.0,57.8,29.87,SE,137,0.0,0.0,86,0.00,,---,0.00,VWS V14.01,2013-08-23 11:55:00,
2013-08-23 05:00:00,62.0,57.8,29.87,SSE,152,0.0,0.0,86,0.00,,---,0.00,VWS V14.01,2013-08-23 12:00:00,
2013-08-23 05:05:00,62.0,57.8,29.86,SE,132,0.0,0.0,86,0.00,,---,0.00,VWS V14.01,2013-08-23 12:05:00,
2013-08-23 05:10:00,62.0,57.8,29.86,SSW,209,0.0,0.0,86,0.00,,---,0.00,VWS V14.01,2013-08-23 12:10:00,
2013-08-23 05:15:00,61.9,57.7,29.86,SSW,207,0.0,0.0,86,0.00,,---,0.00,VWS V14.01,2013-08-23 12:15:00,
2013-08-23 05:20:00,61.7,57.5,29.86,South,173,0.0,0.0,86,0.00,,---,0.00,VWS V14.01,2013-08-23 12:20:00,
2013-08-23 05:25:00,61.7,57.5,29.86,SSW,205,0.0,0.0,86,0.00,,---,0.00,VWS V14.01,2013-08-23 12:25:00,
2013-08-23 05:30:00,61.8,57.9,29.87,WSW,248,0.0,0.0,87,0.00,,---,0.00,VWS V14.01,2013-08-23 12:30:00,
2013-08-23 05:35:00,61.8,57.9,29.87,ESE,115,0.0,0.0,87,0.00,,---,0.00,VWS V14.01,2013-08-23 12:35:00,
2013-08-23 05:40:00,61.8,57.9,29.87,East,101,0.0,0.0,87,0.00,,---,0.00,VWS V14.01,2013-08-23 12:40:00,
2013-08-23 05:45:00,61.9,58.0,29.87,SSE,149,0.0,0.0,87,0.00,,---,0.00,VWS V14.01,2013-08-23 12:45:00,
2013-08-23 05:50:00,62.0,58.1,29.87,SE,134,0.0,0.0,87,0.00,,---,0.00,VWS V14.01,2013-08-23 12:50:00,
2013-08-23 05:55:00,62.1,57.9,29.87,SE,126,0.0,0.0,86,0.00,,---,0.00,VWS V14.01,2013-08-23 12:55:00,
2013-08-23 06:00:00,62.1,57.9,29.86,SSE,157,0.0,0.0,86,0.00,,---,0.00,VWS V14.01,2013-08-23 13:00:00,
2013-08-23 06:05:00,62.1,57.9,29.87,South,171,0.0,0.0,86,0.00,,---,0.00,VWS V14.01,2013-08-23 13:05:00,
2013-08-23 06:10:00,62.0,57.8,29.86,South,175,0.0,0.0,86,0.00,,---,0.00,VWS V14.01,2013-08-23 13:10:00,
2013-08-23 06:15:00,61.8,57.9,29.86,South,186,0.0,0.0,87,0.00,,---,0.00,VWS V14.01,2013-08-23 13:15:00,
2013-08-23 06:20:00,61.9,57.7,29.87,South,185,0.0,0.0,86,0.00,,---,0.00,VWS V14.01,2013-08-23 13:20:00,
2013-08-23 06:24:00,61.9,57.7,29.87,South,176,0.0,0.0,86,0.00,,---,0.00,VWS V14.01,2013-08-23 13:24:00,
2013-08-23 06:29:00,61.9,57.7,29.86,SSW,192,0.0,0.0,86,0.00,,---,0.00,VWS V14.01,2013-08-23 13:29:00,
2013-08-23 06:30:00,61.9,57.7,29.86,South,171,0.0,0.0,86,0.00,,---,0.00,VWS V14.01,2013-08-23 13:30:00,
2013-08-23 06:34:00,62.0,57.8,29.86,South,177,0.0,0.0,86,0.00,,---,0.00,VWS V14.01,2013-08-23 13:34:00,
2013-08-23 06:39:00,62.0,57.8,29.86,East,94,0.0,0.0,86,0.00,,---,0.00,VWS V14.01,2013-08-23 13:39:00,
2013-08-23 06:44:00,62.0,57.8,29.86,South,190,0.0,0.0,86,0.00,,---,0.00,VWS V14.01,2013-08-23 13:44:00,
2013-08-23 06:45:00,61.9,57.7,29.86,SSW,196,0.0,0.0,86,0.00,,---,0.00,VWS V14.01,2013-08-23 13:45:00,
2013-08-23 06:49:00,61.9,57.7,29.87,SSW,203,0.0,0.0,86,0.00,,---,0.00,VWS V14.01,2013-08-23 13:49:00,
2013-08-23 06:54:00,61.8,57.6,29.87,SE,137,0.0,0.0,86,0.00,,---,0.00,VWS V14.01,2013-08-23 13:54:00,
2013-08-23 06:59:00,61.8,57.6,29.87,South,191,0.0,0.0,86,0.00,,---,0.00,VWS V14.01,2013-08-23 13:59:00,
2013-08-23 07:00:00,61.8,57.6,29.87,SSW,211,0.0,0.0,86,0.00,,---,0.00,VWS V14.01,2013-08-23 14:00:00,
2013-08-23 07:04:00,61.9,57.7,29.87,South,177,0.0,0.0,86,0.00,,---,0.00,VWS V14.01,2013-08-23 14:04:00,
2013-08-23 07:09:00,61.9,57.7,29.87,SSE,166,0.0,0.0,86,0.00,,---,0.00,VWS V14.01,2013-08-23 14:09:00,
2013-08-23 07:14:00,61.9,57.3,29.87,South,171,0.0,0.0,85,0.00,,---,0.00,VWS V14.01,2013-08-23 14:14:00,
2013-08-23 07:15:00,61.9,57.7,29.87,West,269,0.0,0.0,86,0.00,,---,0.00,VWS V14.01,2013-08-23 14:15:00,
2013-08-23 07:19:00,61.9,57.3,29.87,SSE,151,0.0,0.0,85,0.00,,---,0.00,VWS V14.01,2013-08-23 14:19:00,
2013-08-23 07:24:00,62.0,57.8,29.88,SE,129,0.0,0.0,86,0.00,,---,0.00,VWS V14.01,2013-08-23 14:24:00,
2013-08-23 07:29:00,62.0,57.5,29.87,SSE,159,0.0,0.0,85,0.00,,---,0.00,VWS V14.01,2013-08-23 14:29:00,
2013-08-23 07:30:00,62.0,57.4,29.87,South,169,0.0,0.0,85,0.00,,---,0.00,VWS V14.01,2013-08-23 14:30:00,
2013-08-23 07:34:00,62.1,57.2,29.87,SSE,161,0.0,0.0,84,0.00,,---,0.00,VWS V14.01,2013-08-23 14:34:00,
2013-08-23 07:39:00,62.1,57.2,29.87,SW,232,0.0,0.0,84,0.00,,---,0.00,VWS V14.01,2013-08-23 14:39:00,
2013-08-23 07:44:00,62.2,57.3,29.88,South,181,0.0,0.0,84,0.00,,---,0.00,VWS V14.01,2013-08-23 14:44:00,
2013-08-23 07:45:00,62.2,57.3,29.87,SE,142,0.0,0.0,84,0.00,,---,0.00,VWS V14.01,2013-08-23 14:45:00,
2013-08-23 07:49:00,62.2,57.3,29.88,SSW,193,0.0,0.0,84,0.00,,---,0.00,VWS V14.01,2013-08-23 14:49:00,
2013-08-23 07:54:00,62.3,57.4,29.88,West,281,0.0,0.0,84,0.00,,---,0.00,VWS V14.01,2013-08-23 14:54:00,
2013-08-23 07:59:00,62.4,57.2,29.88,SE,146,0.0,0.0,83,0.00,,---,0.00,VWS V14.01,2013-08-23 14:59:00,
2013-08-23 08:00:00,62.5,57.6,29.88,SE,141,0.0,0.0,84,0.00,,---,0.00,VWS V14.01,2013-08-23 15:00:00,
2013-08-23 08:04:00,62.6,57.4,29.88,SE,141,0.0,0.0,83,0.00,,---,0.00,VWS V14.01,2013-08-23 15:04:00,
2013-08-23 08:09:00,62.7,57.5,29.88,SSW,203,0.0,0.0,83,0.00,,---,0.00,VWS V14.01,2013-08-23 15:09:00,
2013-08-23 08:14:00,62.9,57.7,29.88,South,171,0.0,0.0,83,0.00,,---,0.00,VWS V14.01,2013-08-23 15:14:00,
2013-08-23 08:15:00,62.9,57.7,29.88,South,170,0.0,0.0,83,0.00,,---,0.00,VWS V14.01,2013-08-23 15:15:00,
2013-08-23 08:19:00,62.9,57.3,29.88,SSE,159,0.0,0.0,82,0.00,,---,0.00,VWS V14.01,2013-08-23 15:19:00,
2013-08-23 08:24:00,62.9,57.3,29.88,SSE,157,0.0,0.0,82,0.00,,---,0.00,VWS V14.01,2013-08-23 15:24:00,
2013-08-23 08:29:00,62.9,57.3,29.88,ESE,120,0.0,0.0,82,0.00,,---,0.00,VWS V14.01,2013-08-23 15:29:00,
2013-08-23 08:30:00,63.0,57.4,29.89,SE,132,0.0,0.0,82,0.00,,---,0.00,VWS V14.01,2013-08-23 15:30:00,
2013-08-23 08:34:00,63.0,57.4,29.88,SSE,154,0.0,0.0,82,0.00,,---,0.00,VWS V14.01,2013-08-23 15:34:00,
2013-08-23 08:39:00,63.1,57.2,29.89,SE,142,0.0,0.0,81,0.00,,---,0.00,VWS V14.01,2013-08-23 15:39:00,
2013-08-23 08:44:00,63.2,57.6,29.88,WSW,243,0.0,0.0,82,0.00,,---,0.00,VWS V14.01,2013-08-23 15:44:00,
2013-08-23 08:45:00,63.2,57.3,29.89,SSE,149,0.0,0.0,81,0.00,,---,0.00,VWS V14.01,2013-08-23 15:45:00,
2013-08-23 08:49:00,63.3,57.4,29.89,SSE,149,0.0,0.0,81,0.00,,---,0.00,VWS V14.01,2013-08-23 15:49:00,
2013-08-23 08:54:00,63.4,57.8,29.89,SW,234,0.0,0.0,82,0.00,,---,0.00,VWS V14.01,2013-08-23 15:54:00,
2013-08-23 08:59:00,63.6,57.7,29.89,SW,221,0.0,0.0,81,0.00,,---,0.00,VWS V14.01,2013-08-23 15:59:00,
2013-08-23 09:00:00,63.6,57.7,29.89,SSE,149,0.0,0.0,81,0.00,,---,0.00,VWS V14.01,2013-08-23 16:00:00,
2013-08-23 09:04:00,63.8,57.9,29.89,ESE,108,0.0,0.0,81,0.00,,---,0.00,VWS V14.01,2013-08-23 16:04:00,
2013-08-23 09:09:00,63.9,57.6,29.89,South,184,0.0,0.0,80,0.00,,---,0.00,VWS V14.01,2013-08-23 16:09:00,
2013-08-23 09:14:00,63.6,57.3,29.89,South,183,0.0,0.0,80,0.00,,---,0.00,VWS V14.01,2013-08-23 16:14:00,
2013-08-23 09:15:00,63.7,58.1,29.89,SE,144,0.0,0.0,82,0.00,,---,0.00,VWS V14.01,2013-08-23 16:15:00,
2013-08-23 09:19:00,63.8,57.5,29.89,SSW,202,0.0,0.0,80,0.00,,---,0.00,VWS V14.01,2013-08-23 16:19:00,
2013-08-23 09:24:00,63.9,57.6,29.89,SSE,168,0.0,0.0,80,0.00,,---,0.00,VWS V14.01,2013-08-23 16:24:00,
2013-08-23 09:29:00,64.1,57.8,29.89,SSE,165,0.0,0.0,80,0.00,,---,0.00,VWS V14.01,2013-08-23 16:29:00,
2013-08-23 09:30:00,64.2,57.6,29.89,SE,143,0.0,0.0,79,0.00,,---,0.00,VWS V14.01,2013-08-23 16:30:00,
2013-08-23 09:34:00,64.2,57.2,29.90,ESE,123,0.0,0.0,78,0.00,,---,0.00,VWS V14.01,2013-08-23 16:34:00,
2013-08-23 09:39:00,64.2,57.2,29.89,WSW,249,0.0,0.0,78,0.00,,---,0.00,VWS V14.01,2013-08-23 16:39:00,
2013-08-23 09:44:00,64.2,57.2,29.89,SE,124,0.0,0.0,78,0.00,,---,0.00,VWS V14.01,2013-08-23 16:44:00,
2013-08-23 09:45:00,64.2,57.2,29.89,NW,317,0.0,0.0,78,0.00,,---,0.00,VWS V14.01,2013-08-23 16:45:00,
2013-08-23 09:49:00,64.2,57.2,29.89,SE,133,0.0,0.0,78,0.00,,---,0.00,VWS V14.01,2013-08-23 16:49:00,
2013-08-23 09:54:00,64.2,57.6,29.89,South,180,0.0,0.0,79,0.00,,---,0.00,VWS V14.01,2013-08-23 16:54:00,
2013-08-23 09:59:00,64.5,57.5,29.90,SW,233,0.0,0.0,78,0.00,,---,0.00,VWS V14.01,2013-08-23 16:59:00,
2013-08-23 10:00:00,64.7,57.7,29.90,SSE,155,0.0,0.0,78,0.00,,---,0.00,VWS V14.01,2013-08-23 17:00:00,
2013-08-23 10:04:00,64.6,57.6,29.90,SSE,167,0.0,0.0,78,0.00,,---,0.00,VWS V14.01,2013-08-23 17:04:00,
2013-08-23 10:09:00,64.6,58.0,29.90,South,178,0.0,0.0,79,0.00,,---,0.00,VWS V14.01,2013-08-23 17:09:00,
2013-08-23 10:14:00,65.0,58.3,29.90,SSE,153,0.0,0.0,79,0.00,,---,0.00,VWS V14.01,2013-08-23 17:14:00,
2013-08-23 10:15:00,65.2,57.8,29.90,SE,128,0.0,0.0,77,0.00,,---,0.00,VWS V14.01,2013-08-23 17:15:00,
2013-08-23 10:19:00,65.5,57.7,29.90,South,176,0.0,0.0,76,0.00,,---,0.00,VWS V14.01,2013-08-23 17:19:00,
2013-08-23 10:24:00,65.7,57.9,29.90,NW,321,0.0,0.0,76,0.00,,---,0.00,VWS V14.01,2013-08-23 17:24:00,
2013-08-23 10:29:00,65.6,57.5,29.90,SE,144,0.0,0.0,75,0.00,,---,0.00,VWS V14.01,2013-08-23 17:29:00,
2013-08-23 10:30:00,65.5,57.4,29.90,WSW,255,0.0,0.0,75,0.00,,---,0.00,VWS V14.01,2013-08-23 17:30:00,
2013-08-23 10:34:00,65.6,57.5,29.90,SSE,152,0.0,0.0,75,0.00,,---,0.00,VWS V14.01,2013-08-23 17:34:00,
2013-08-23 10:39:00,65.9,57.4,29.90,SSE,156,0.0,0.0,74,0.00,,---,0.00,VWS V14.01,2013-08-23 17:39:00,
2013-08-23 10:44:00,65.7,57.2,29.90,South,170,0.0,0.0,74,0.00,,---,0.00,VWS V14.01,2013-08-23 17:44:00,
2013-08-23 10:45:00,65.7,57.2,29.90,South,169,0.0,0.0,74,0.00,,---,0.00,VWS V14.01,2013-08-23 17:45:00,
2013-08-23 10:49:00,65.7,57.2,29.90,SSE,157,0.0,0.0,74,0.00,,---,0.00,VWS V14.01,2013-08-23 17:49:00,
2013-08-23 10:54:00,66.4,57.9,29.90,SSE,157,0.0,0.0,74,0.00,,---,0.00,VWS V14.01,2013-08-23 17:54:00,
2013-08-23 10:59:00,66.6,57.3,29.90,South,182,0.0,0.0,72,0.00,,---,0.00,VWS V14.01,2013-08-23 17:59:00,
2013-08-23 11:00:00,66.6,57.7,29.90,SE,130,0.0,0.0,73,0.00,,---,0.00,VWS V14.01,2013-08-23 18:00:00,
2013-08-23 11:04:00,66.6,56.9,29.90,South,178,0.0,0.0,71,0.00,,---,0.00,VWS V14.01,2013-08-23 18:04:00,
2013-08-23 11:09:00,67.0,57.7,29.90,SE,130,0.0,0.0,72,0.00,,---,0.00,VWS V14.01,2013-08-23 18:09:00,
2013-08-23 11:14:00,67.0,57.3,29.90,NW,320,0.0,0.0,71,0.00,,---,0.00,VWS V14.01,2013-08-23 18:14:00,
2013-08-23 11:15:00,67.0,57.7,29.89,SW,219,0.0,0.0,72,0.00,,---,0.00,VWS V14.01,2013-08-23 18:15:00,
2013-08-23 11:19:00,67.1,57.4,29.89,South,186,0.0,0.0,71,0.00,,---,0.00,VWS V14.01,2013-08-23 18:19:00,
2013-08-23 11:24:00,67.2,57.1,29.89,WNW,300,0.0,0.0,70,0.00,,---,0.00,VWS V14.01,2013-08-23 18:24:00,
2013-08-23 11:29:00,67.3,57.6,29.89,South,172,0.0,0.0,71,0.00,,---,0.00,VWS V14.01,2013-08-23 18:29:00,
2013-08-23 11:30:00,67.4,58.1,29.90,South,183,0.0,0.0,72,0.00,,---,0.00,VWS V14.01,2013-08-23 18:30:00,
2013-08-23 11:34:00,67.4,57.3,29.90,SSW,192,0.0,0.0,70,0.00,,---,0.00,VWS V14.01,2013-08-23 18:34:00,
2013-08-23 11:39:00,67.3,57.6,29.89,SSE,156,0.0,0.0,71,0.00,,---,0.00,VWS V14.01,2013-08-23 18:39:00,
2013-08-23 11:44:00,67.2,57.9,29.90,SSW,196,0.0,0.0,72,0.00,,---,0.00,VWS V14.01,2013-08-23 18:44:00,
2013-08-23 11:45:00,67.2,57.5,29.90,SSW,211,0.0,0.0,71,0.00,,---,0.00,VWS V14.01,2013-08-23 18:45:00,
2013-08-23 11:49:00,67.2,58.6,29.90,East,94,0.0,0.0,74,0.00,,---,0.00,VWS V14.01,2013-08-23 18:49:00,
2013-08-23 11:54:00,67.4,58.1,29.90,SE,138,0.0,0.0,72,0.00,,---,0.00,VWS V14.01,2013-08-23 18:54:00,
2013-08-23 11:59:00,67.3,57.6,29.90,WNW,289,0.0,0.0,71,0.00,,---,0.00,VWS V14.01,2013-08-23 18:59:00,
2013-08-23 12:00:00,67.2,57.5,29.89,WNW,294,0.0,0.0,71,0.00,,---,0.00,VWS V14.01,2013-08-23 19:00:00,
2013-08-23 12:04:00,67.1,57.4,29.90,South,173,0.0,0.0,71,0.00,,---,0.00,VWS V14.01,2013-08-23 19:04:00,
2013-08-23 12:09:00,66.8,57.1,29.89,NNW,336,0.0,0.0,71,0.00,,---,0.00,VWS V14.01,2013-08-23 19:09:00,
2013-08-23 12:14:00,67.0,57.3,29.90,West,281,0.0,0.0,71,0.00,,---,0.00,VWS V14.01,2013-08-23 19:14:00,
2013-08-23 12:15:00,67.1,57.4,29.89,NNW,328,0.0,0.0,71,0.00,,---,0.00,VWS V14.01,2013-08-23 19:15:00,
2013-08-23 12:19:00,67.2,57.1,29.89,NNW,328,0.0,0.0,70,0.00,,---,0.00,VWS V14.01,2013-08-23 19:19:00,
2013-08-23 12:24:00,67.7,58.0,29.89,ENE,63,0.0,0.0,71,0.00,,---,0.00,VWS V14.01,2013-08-23 19:24:00,
2013-08-23 12:29:00,68.1,58.0,29.89,SSW,193,0.0,0.0,70,0.00,,---,0.00,VWS V14.01,2013-08-23 19:29:00,
2013-08-23 12:30:00,68.3,58.2,29.89,NNW,340,0.0,0.0,70,0.00,,---,0.00,VWS V14.01,2013-08-23 19:30:00,
2013-08-23 12:34:00,68.4,57.8,29.89,NNW,334,0.0,0.0,69,0.00,,---,0.00,VWS V14.01,2013-08-23 19:34:00,
2013-08-23 12:39:00,68.7,57.7,29.89,South,180,0.0,0.0,68,0.00,,---,0.00,VWS V14.01,2013-08-23 19:39:00,
2013-08-23 12:44:00,68.7,57.7,29.89,WNW,288,0.0,0.0,68,0.00,,---,0.00,VWS V14.01,2013-08-23 19:44:00,
2013-08-23 12:45:00,68.6,57.6,29.89,WSW,250,0.0,0.0,68,0.00,,---,0.00,VWS V14.01,2013-08-23 19:45:00,
2013-08-23 12:49:00,68.7,57.7,29.89,WNW,292,0.0,0.0,68,0.00,,---,0.00,VWS V14.01,2013-08-23 19:49:00,
2013-08-23 12:54:00,68.6,57.6,29.89,ESE,111,0.0,0.0,68,0.00,,---,0.00,VWS V14.01,2013-08-23 19:54:00,
2013-08-23 12:59:00,68.9,57.9,29.89,SSW,203,0.0,0.0,68,0.00,,---,0.00,VWS V14.01,2013-08-23 19:59:00,
2013-08-23 13:00:00,69.2,58.2,29.89,SE,129,0.0,0.0,68,0.00,,---,0.00,VWS V14.01,2013-08-23 20:00:00,
2013-08-23 13:04:00,69.5,59.3,29.89,ENE,77,0.0,0.0,70,0.00,,---,0.00,VWS V14.01,2013-08-23 20:04:00,
2013-08-23 13:09:00,69.9,58.0,29.89,SE,126,0.0,0.0,66,0.00,,---,0.00,VWS V14.01,2013-08-23 20:09:00,
2013-08-23 13:14:00,70.2,58.3,29.89,SE,136,0.0,0.0,66,0.00,,---,0.00,VWS V14.01,2013-08-23 20:14:00,
2013-08-23 13:15:00,70.3,58.4,29.89,SSE,158,0.0,0.0,66,0.00,,---,0.00,VWS V14.01,2013-08-23 20:15:00,
2013-08-23 13:19:00,70.3,57.6,29.89,SSE,167,0.0,0.0,64,0.00,,---,0.00,VWS V14.01,2013-08-23 20:19:00,
2013-08-23 13:24:00,70.4,58.5,29.89,ESE,116,0.0,0.0,66,0.00,,---,0.00,VWS V14.01,2013-08-23 20:24:00,
2013-08-23 13:29:00,70.5,58.2,29.89,ESE,117,0.0,0.0,65,0.00,,---,0.00,VWS V14.01,2013-08-23 20:29:00,
2013-08-23 13:30:00,70.7,57.9,29.89,SSE,148,0.0,0.0,64,0.00,,---,0.00,VWS V14.01,2013-08-23 20:30:00,
2013-08-23 13:34:00,70.7,57.9,29.89,SE,132,0.0,0.0,64,0.00,,---,0.00,VWS V14.01,2013-08-23 20:34:00,
2013-08-23 13:39:00,71.2,58.8,29.89,SE,132,0.0,0.0,65,0.00,,---,0.00,VWS V14.01,2013-08-23 20:39:00,
2013-08-23 13:44:00,71.7,58.5,29.89,SSE,152,0.0,0.0,63,0.00,,---,0.00,VWS V14.01,2013-08-23 20:44:00,
2013-08-23 13:45:00,71.8,59.0,29.89,SW,225,0.0,0.0,64,0.00,,---,0.00,VWS V14.01,2013-08-23 20:45:00,
2013-08-23 13:49:00,71.8,58.1,29.89,SE,137,0.0,0.0,62,0.00,,---,0.00,VWS V14.01,2013-08-23 20:49:00,
2013-08-23 13:54:00,72.0,58.3,29.89,South,182,0.0,0.0,62,0.00,,---,0.00,VWS V14.01,2013-08-23 20:54:00,
2013-08-23 13:59:00,72.1,58.4,29.89,SSE,151,0.0,0.0,62,0.00,,---,0.00,VWS V14.01,2013-08-23 20:59:00,
2013-08-23 14:00:00,71.8,58.1,29.89,South,185,0.0,0.0,62,0.00,,---,0.00,VWS V14.01,2013-08-23 21:00:00,
2013-08-23 14:03:00,71.7,59.3,29.89,NNW,336,0.0,0.0,65,0.00,,---,0.00,VWS V14.01,2013-08-23 21:03:00,
2013-08-23 14:08:00,71.5,58.3,29.89,ESE,121,0.0,0.0,63,0.00,,---,0.00,VWS V14.01,2013-08-23 21:08:00,
2013-08-23 14:13:00,71.5,58.3,29.89,WNW,298,0.0,0.0,63,0.00,,---,0.00,VWS V14.01,2013-08-23 21:13:00,
2013-08-23 14:15:00,71.2,58.0,29.89,WNW,288,0.0,0.0,63,0.00,,---,0.00,VWS V14.01,2013-08-23 21:15:00,
2013-08-23 14:18:00,70.9,58.1,29.89,NNW,340,0.0,0.0,64,0.00,,---,0.00,VWS V14.01,2013-08-23 21:18:00,
2013-08-23 14:23:00,70.4,58.5,29.89,ESE,117,0.0,0.0,66,0.00,,---,0.00,VWS V14.01,2013-08-23 21:23:00,
2013-08-23 14:28:00,70.2,58.3,29.89,NNW,338,0.0,0.0,66,0.00,,---,0.00,VWS V14.01,2013-08-23 21:28:00,
2013-08-23 14:30:00,70.2,58.7,29.89,SE,126,0.0,0.0,67,0.00,,---,0.00,VWS V14.01,2013-08-23 21:30:00,
2013-08-23 14:33:00,70.1,58.2,29.89,SSE,165,0.0,0.0,66,0.00,,---,0.00,VWS V14.01,2013-08-23 21:33:00,
2013-08-23 14:38:00,70.3,58.4,29.89,WNW,301,0.0,0.0,66,0.00,,---,0.00,VWS V14.01,2013-08-23 21:38:00,
2013-08-23 14:43:00,70.3,58.0,29.89,NW,311,0.0,0.0,65,0.00,,---,0.00,VWS V14.01,2013-08-23 21:43:00,
2013-08-23 14:45:00,70.1,58.7,29.89,North,355,0.0,0.0,67,0.00,,---,0.00,VWS V14.01,2013-08-23 21:45:00,
2013-08-23 14:48:00,70.2,59.2,29.89,South,179,0.0,0.0,68,0.00,,---,0.00,VWS V14.01,2013-08-23 21:48:00,
2013-08-23 14:53:00,70.7,58.4,29.89,SSE,162,0.0,0.0,65,0.00,,---,0.00,VWS V14.01,2013-08-23 21:53:00,
2013-08-23 14:58:00,71.1,58.3,29.89,ESE,116,0.0,0.0,64,0.00,,---,0.00,VWS V14.01,2013-08-23 21:58:00,
2013-08-23 15:00:00,71.3,58.1,29.89,ESE,111,0.0,0.0,63,0.00,,---,0.00,VWS V14.01,2013-08-23 22:00:00,
2013-08-23 15:03:00,71.4,58.2,29.89,SSE,163,0.0,0.0,63,0.00,,---,0.00,VWS V14.01,2013-08-23 22:03:00,
2013-08-23 15:08:00,71.6,58.8,29.89,WNW,300,0.0,0.0,64,0.00,,---,0.00,VWS V14.01,2013-08-23 22:08:00,
2013-08-23 15:13:00,72.1,58.4,29.89,West,272,0.0,0.0,62,0.00,,---,0.00,VWS V14.01,2013-08-23 22:13:00,
2013-08-23 15:15:00,72.4,58.7,29.89,ENE,66,0.0,0.0,62,0.00,,---,0.00,VWS V14.01,2013-08-23 22:15:00,
2013-08-23 15:18:00,72.6,58.4,29.89,NW,307,0.0,0.0,61,0.00,,---,0.00,VWS V14.01,2013-08-23 22:18:00,
2013-08-23 15:23:00,72.5,57.8,29.88,WNW,291,0.0,0.0,60,0.00,,---,0.00,VWS V14.01,2013-08-23 22:23:00,
2013-08-23 15:28:00,72.6,57.9,29.89,West,279,0.0,0.0,60,0.00,,---,0.00,VWS V14.01,2013-08-23 22:28:00,
2013-08-23 15:30:00,72.3,58.1,29.89,South,175,0.0,0.0,61,0.00,,---,0.00,VWS V14.01,2013-08-23 22:30:00,
2013-08-23 15:33:00,71.9,57.7,29.88,WNW,292,0.0,0.0,61,0.00,,---,0.00,VWS V14.01,2013-08-23 22:33:00,
2013-08-23 15:38:00,71.3,58.1,29.89,ESE,114,0.0,0.0,63,0.00,,---,0.00,VWS V14.01,2013-08-23 22:38:00,
2013-08-23 15:43:00,71.9,57.7,29.89,NNW,340,0.0,0.0,61,0.00,,---,0.00,VWS V14.01,2013-08-23 22:43:00,
2013-08-23 15:45:00,71.9,57.7,29.89,NW,305,0.0,0.0,61,0.00,,---,0.00,VWS V14.01,2013-08-23 22:45:00,
2013-08-23 15:48:00,72.0,57.8,29.89,SW,232,0.0,0.0,61,0.00,,---,0.00,VWS V14.01,2013-08-23 22:48:00,
2013-08-23 15:53:00,72.1,57.5,29.88,WNW,292,0.0,0.0,60,0.00,,---,0.00,VWS V14.01,2013-08-23 22:53:00,
2013-08-23 15:58:00,71.6,57.9,29.88,NNW,337,0.0,0.0,62,0.00,,---,0.00,VWS V14.01,2013-08-23 22:58:00,
2013-08-23 16:00:00,71.9,58.2,29.88,NNW,336,0.0,0.0,62,0.00,,---,0.00,VWS V14.01,2013-08-23 23:00:00,
2013-08-23 16:03:00,72.0,57.8,29.88,NW,326,0.0,0.0,61,0.00,,---,0.00,VWS V14.01,2013-08-23 23:03:00,
2013-08-23 16:08:00,71.6,57.9,29.88,West,267,0.0,0.0,62,0.00,,---,0.00,VWS V14.01,2013-08-23 23:08:00,
2013-08-23 16:13:00,71.3,58.1,29.89,SE,146,0.0,0.0,63,0.00,,---,0.00,VWS V14.01,2013-08-23 23:13:00,
2013-08-23 16:15:00,71.4,58.2,29.88,NNW,329,0.0,0.0,63,0.00,,---,0.00,VWS V14.01,2013-08-23 23:15:00,
2013-08-23 16:18:00,71.5,57.8,29.88,NNW,338,0.0,0.0,62,0.00,,---,0.00,VWS V14.01,2013-08-23 23:18:00,
2013-08-23 16:23:00,71.7,57.5,29.88,South,186,0.0,0.0,61,0.00,,---,0.00,VWS V14.01,2013-08-23 23:23:00,
2013-08-23 16:28:00,72.0,58.3,29.88,SSE,162,0.0,0.0,62,0.00,,---,0.00,VWS V14.01,2013-08-23 23:28:00,
2013-08-23 16:30:00,72.1,57.5,29.88,West,277,0.0,0.0,60,0.00,,---,0.00,VWS V14.01,2013-08-23 23:30:00,
2013-08-23 16:33:00,72.0,57.8,29.88,NNW,328,0.0,0.0,61,0.00,,---,0.00,VWS V14.01,2013-08-23 23:33:00,
2013-08-23 16:38:00,72.0,57.4,29.88,SSE,155,0.0,0.0,60,0.00,,---,0.00,VWS V14.01,2013-08-23 23:38:00,
2013-08-23 16:43:00,72.0,56.9,29.88,SW,223,0.0,0.0,59,0.00,,---,0.00,VWS V14.01,2013-08-23 23:43:00,
2013-08-23 16:45:00,72.2,58.5,29.88,WNW,294,0.0,0.0,62,0.00,,---,0.00,VWS V14.01,2013-08-23 23:45:00,
2013-08-23 16:48:00,72.3,57.7,29.88,NNW,327,0.0,0.0,60,0.00,,---,0.00,VWS V14.01,2013-08-23 23:48:00,
2013-08-23 16:53:00,72.0,56.9,29.88,West,281,0.0,0.0,59,0.00,,---,0.00,VWS V14.01,2013-08-23 23:53:00,
2013-08-23 16:58:00,71.7,57.1,29.88,West,274,0.0,0.0,60,0.00,,---,0.00,VWS V14.01,2013-08-23 23:58:00,
2013-08-23 17:00:00,71.7,57.1,29.88,SW,221,0.0,0.0,60,0.00,,---,0.00,VWS V14.01,2013-08-24 00:00:00,
2013-08-23 17:03:00,71.6,56.5,29.88,West,273,0.0,0.0,59,0.00,,---,0.00,VWS V14.01,2013-08-24 00:03:00,
2013-08-23 17:08:00,71.9,56.8,29.88,South,185,0.0,0.0,59,0.00,,---,0.00,VWS V14.01,2013-08-24 00:08:00,
2013-08-23 17:13:00,72.7,57.1,29.88,North,360,0.0,0.0,58,0.00,,---,0.00,VWS V14.01,2013-08-24 00:13:00,
2013-08-23 17:15:00,73.3,57.2,29.88,South,176,0.0,0.0,57,0.00,,---,0.00,VWS V14.01,2013-08-24 00:15:00,
2013-08-23 17:18:00,73.5,57.3,29.88,SE,129,0.0,0.0,57,0.00,,---,0.00,VWS V14.01,2013-08-24 00:18:00,
2013-08-23 17:23:00,74.2,57.5,29.87,SW,216,0.0,0.0,56,0.00,,---,0.00,VWS V14.01,2013-08-24 00:23:00,
2013-08-23 17:28:00,73.5,56.9,29.87,West,277,0.0,0.0,56,0.00,,---,0.00,VWS V14.01,2013-08-24 00:28:00,
2013-08-23 17:30:00,72.0,56.9,29.87,NNW,343,0.0,0.0,59,0.00,,---,0.00,VWS V14.01,2013-08-24 00:30:00,
2013-08-23 17:33:00,71.7,57.1,29.87,West,277,0.0,0.0,60,0.00,,---,0.00,VWS V14.01,2013-08-24 00:33:00,
2013-08-23 17:38:00,72.0,58.3,29.87,NNE,19,0.0,0.0,62,0.00,,---,0.00,VWS V14.01,2013-08-24 00:38:00,
2013-08-23 17:43:00,72.6,57.5,29.87,NNE,32,0.0,0.0,59,0.00,,---,0.00,VWS V14.01,2013-08-24 00:43:00,
2013-08-23 17:45:00,72.6,57.5,29.87,SE,136,0.0,0.0,59,0.00,,---,0.00,VWS V14.01,2013-08-24 00:45:00,
2013-08-23 17:48:00,72.7,58.0,29.87,SSE,148,0.0,0.0,60,0.00,,---,0.00,VWS V14.01,2013-08-24 00:48:00,
2013-08-23 17:53:00,73.1,57.9,29.87,SSW,202,0.0,0.0,59,0.00,,---,0.00,VWS V14.01,2013-08-24 00:53:00,
2013-08-23 17:58:00,73.5,57.8,29.87,NE,53,0.0,0.0,58,0.00,,---,0.00,VWS V14.01,2013-08-24 00:58:00,
2013-08-23 18:00:00,73.7,57.5,29.87,NNW,348,0.0,0.0,57,0.00,,---,0.00,VWS V14.01,2013-08-24 01:00:00,
2013-08-23 18:03:00,73.5,57.3,29.87,WNW,289,0.0,0.0,57,0.00,,---,0.00,VWS V14.01,2013-08-24 01:03:00,
2013-08-23 18:08:00,73.2,57.1,29.87,SW,227,0.0,0.0,57,0.00,,---,0.00,VWS V14.01,2013-08-24 01:08:00,
2013-08-23 18:13:00,72.9,57.3,29.87,SSE,156,0.0,0.0,58,0.00,,---,0.00,VWS V14.01,2013-08-24 01:13:00,
2013-08-23 18:15:00,72.8,57.2,29.87,SSE,161,0.0,0.0,58,0.00,,---,0.00,VWS V14.01,2013-08-24 01:15:00,
2013-08-23 18:18:00,72.8,57.2,29.87,SSE,159,0.0,0.0,58,0.00,,---,0.00,VWS V14.01,2013-08-24 01:18:00,
2013-08-23 18:23:00,72.6,56.5,29.87,NW,319,0.0,0.0,57,0.00,,---,0.00,VWS V14.01,2013-08-24 01:23:00,
2013-08-23 18:28:00,72.4,56.8,29.87,NW,306,0.0,0.0,58,0.00,,---,0.00,VWS V14.01,2013-08-24 01:28:00,
2013-08-23 18:30:00,72.4,56.8,29.87,NNW,336,0.0,0.0,58,0.00,,---,0.00,VWS V14.01,2013-08-24 01:30:00,
2013-08-23 18:33:00,72.4,56.8,29.87,East,94,0.0,0.0,58,0.00,,---,0.00,VWS V14.01,2013-08-24 01:33:00,
2013-08-23 18:38:00,72.1,56.5,29.87,SSW,200,0.0,0.0,58,0.00,,---,0.00,VWS V14.01,2013-08-24 01:38:00,
2013-08-23 18:43:00,71.7,56.2,29.87,North,355,0.0,0.0,58,0.00,,---,0.00,VWS V14.01,2013-08-24 01:43:00,
2013-08-23 18:45:00,71.6,56.5,29.87,NE,55,0.0,0.0,59,0.00,,---,0.00,VWS V14.01,2013-08-24 01:45:00,
2013-08-23 18:48:00,71.6,56.5,29.87,NNE,29,0.0,0.0,59,0.00,,---,0.00,VWS V14.01,2013-08-24 01:48:00,
2013-08-23 18:53:00,71.4,56.8,29.87,South,186,0.0,0.0,60,0.00,,---,0.00,VWS V14.01,2013-08-24 01:53:00,
2013-08-23 18:58:00,71.4,56.8,29.87,ENE,69,0.0,0.0,60,0.00,,---,0.00,VWS V14.01,2013-08-24 01:58:00,
2013-08-23 19:00:00,71.4,56.8,29.87,East,95,0.0,0.0,60,0.00,,---,0.00,VWS V14.01,2013-08-24 02:00:00,
2013-08-23 19:03:00,71.3,56.7,29.87,East,92,0.0,0.0,60,0.00,,---,0.00,VWS V14.01,2013-08-24 02:03:00,
2013-08-23 19:08:00,71.2,56.6,29.87,SSE,157,0.0,0.0,60,0.00,,---,0.00,VWS V14.01,2013-08-24 02:08:00,
2013-08-23 19:13:00,70.8,56.7,29.87,West,259,0.0,0.0,61,0.00,,---,0.00,VWS V14.01,2013-08-24 02:13:00,
2013-08-23 19:15:00,70.6,56.5,29.87,SSE,165,0.0,0.0,61,0.00,,---,0.00,VWS V14.01,2013-08-24 02:15:00,
2013-08-23 19:18:00,70.6,56.5,29.87,West,260,0.0,0.0,61,0.00,,---,0.00,VWS V14.01,2013-08-24 02:18:00,
2013-08-23 19:23:00,70.4,56.8,29.87,NE,42,0.0,0.0,62,0.00,,---,0.00,VWS V14.01,2013-08-24 02:23:00,
2013-08-23 19:28:00,70.2,56.1,29.87,NE,39,0.0,0.0,61,0.00,,---,0.00,VWS V14.01,2013-08-24 02:28:00,
2013-08-23 19:30:00,70.1,56.0,29.87,ENE,78,0.0,0.0,61,0.00,,---,0.00,VWS V14.01,2013-08-24 02:30:00,
2013-08-23 19:33:00,70.1,56.0,29.87,ENE,61,0.0,0.0,61,0.00,,---,0.00,VWS V14.01,2013-08-24 02:33:00,
2013-08-23 19:38:00,69.8,56.2,29.87,WNW,300,0.0,0.0,62,0.00,,---,0.00,VWS V14.01,2013-08-24 02:38:00,
2013-08-23 19:43:00,69.5,55.9,29.87,SE,145,0.0,0.0,62,0.00,,---,0.00,VWS V14.01,2013-08-24 02:43:00,
2013-08-23 19:45:00,69.4,55.8,29.87,South,169,0.0,0.0,62,0.00,,---,0.00,VWS V14.01,2013-08-24 02:45:00,
2013-08-23 19:48:00,69.3,56.2,29.87,WSW,241,0.0,0.0,63,0.00,,---,0.00,VWS V14.01,2013-08-24 02:48:00,
2013-08-23 19:53:00,69.2,56.1,29.87,NNW,334,0.0,0.0,63,0.00,,---,0.00,VWS V14.01,2013-08-24 02:53:00,
2013-08-23 19:58:00,69.0,55.9,29.87,East,98,0.0,0.0,63,0.00,,---,0.00,VWS V14.01,2013-08-24 02:58:00,
2013-08-23 20:00:00,68.8,56.1,29.87,SSE,156,0.0,0.0,64,0.00,,---,0.00,VWS V14.01,2013-08-24 03:00:00,
2013-08-23 20:03:00,68.7,56.0,29.87,WSW,246,0.0,0.0,64,0.00,,---,0.00,VWS V14.01,2013-08-24 03:03:00,
2013-08-23 20:08:00,68.1,55.9,29.87,SW,223,0.0,0.0,65,0.00,,---,0.00,VWS V14.01,2013-08-24 03:08:00,
2013-08-23 20:13:00,67.7,56.4,29.87,WNW,288,0.0,0.0,67,0.00,,---,0.00,VWS V14.01,2013-08-24 03:13:00,
2013-08-23 20:15:00,67.6,56.3,29.87,North,355,0.0,0.0,67,0.00,,---,0.00,VWS V14.01,2013-08-24 03:15:00,
2013-08-23 20:18:00,67.5,56.2,29.88,West,261,0.0,0.0,67,0.00,,---,0.00,VWS V14.01,2013-08-24 03:18:00,
2013-08-23 20:30:00,66.8,56.3,29.88,West,276,0.0,0.0,69,0.00,,---,0.00,VWS V14.01,2013-08-24 03:30:00,
2013-08-23 20:45:00,66.3,56.6,29.88,NW,307,0.0,0.0,71,0.00,,---,0.00,VWS V14.01,2013-08-24 03:45:00,
2013-08-23 20:47:00,66.3,56.6,29.88,WNW,303,0.0,0.0,71,0.00,,---,0.00,VWS V14.01,2013-08-24 03:47:00,
2013-08-23 20:52:00,66.0,56.7,29.88,WNW,298,0.0,0.0,72,0.00,,---,0.00,VWS V14.01,2013-08-24 03:52:00,
2013-08-23 20:57:00,65.8,56.5,29.88,NW,304,0.0,0.0,72,0.00,,---,0.00,VWS V14.01,2013-08-24 03:57:00,
2013-08-23 21:00:00,65.7,56.8,29.88,WSW,251,0.0,0.0,73,0.00,,---,0.00,VWS V14.01,2013-08-24 04:00:00,
2013-08-23 21:01:00,65.7,56.8,29.88,NW,319,0.0,0.0,73,0.00,,---,0.00,VWS V14.01,2013-08-24 04:01:00,
2013-08-23 21:06:00,65.5,56.6,29.88,NW,309,0.0,0.0,73,0.00,,---,0.00,VWS V14.01,2013-08-24 04:06:00,
2013-08-23 21:11:00,65.4,56.9,29.89,SE,144,0.0,0.0,74,0.00,,---,0.00,VWS V14.01,2013-08-24 04:11:00,
2013-08-23 21:15:00,65.6,57.1,29.89,SSE,150,0.0,0.0,74,0.00,,---,0.00,VWS V14.01,2013-08-24 04:15:00,
2013-08-23 21:16:00,65.5,57.0,29.89,SSE,150,0.0,0.0,74,0.00,,---,0.00,VWS V14.01,2013-08-24 04:16:00,
2013-08-23 21:21:00,65.6,57.1,29.89,SSE,151,0.0,0.0,74,0.00,,---,0.00,VWS V14.01,2013-08-24 04:21:00,
2013-08-23 21:26:00,65.7,57.2,29.89,SSE,151,0.0,0.0,74,0.00,,---,0.00,VWS V14.01,2013-08-24 04:26:00,
2013-08-23 21:30:00,65.8,57.3,29.89,SSE,161,0.0,0.0,74,0.00,,---,0.00,VWS V14.01,2013-08-24 04:30:00,
2013-08-23 21:31:00,65.8,57.3,29.89,SSE,161,0.0,0.0,74,0.00,,---,0.00,VWS V14.01,2013-08-24 04:31:00,
2013-08-23 21:36:00,65.8,57.3,29.89,South,169,0.0,0.0,74,0.00,,---,0.00,VWS V14.01,2013-08-24 04:36:00,
2013-08-23 21:41:00,65.9,57.4,29.89,South,190,0.0,0.0,74,0.00,,---,0.00,VWS V14.01,2013-08-24 04:41:00,
2013-08-23 21:45:00,65.8,57.3,29.89,South,179,0.0,0.0,74,0.00,,---,0.00,VWS V14.01,2013-08-24 04:45:00,
2013-08-23 21:46:00,65.8,57.3,29.89,South,179,0.0,0.0,74,0.00,,---,0.00,VWS V14.01,2013-08-24 04:46:00,
2013-08-23 21:51:00,65.9,57.4,29.89,South,179,0.0,0.0,74,0.00,,---,0.00,VWS V14.01,2013-08-24 04:51:00,
2013-08-23 21:56:00,65.9,57.4,29.89,South,179,0.0,0.0,74,0.00,,---,0.00,VWS V14.01,2013-08-24 04:56:00,
2013-08-23 22:00:00,65.8,57.7,29.89,South,175,0.0,0.0,75,0.00,,---,0.00,VWS V14.01,2013-08-24 05:00:00,
2013-08-23 22:01:00,65.8,57.3,29.89,South,176,0.0,0.0,74,0.00,,---,0.00,VWS V14.01,2013-08-24 05:01:00,
2013-08-23 22:06:00,65.7,57.6,29.89,WSW,257,0.0,0.0,75,0.00,,---,0.00,VWS V14.01,2013-08-24 05:06:00,
2013-08-23 22:11:00,65.6,57.5,29.89,SE,135,0.0,0.0,75,0.00,,---,0.00,VWS V14.01,2013-08-24 05:11:00,
2013-08-23 22:15:00,65.7,57.6,29.89,SSE,161,0.0,0.0,75,0.00,,---,0.00,VWS V14.01,2013-08-24 05:15:00,
2013-08-23 22:16:00,65.7,57.6,29.89,South,186,0.0,0.0,75,0.00,,---,0.00,VWS V14.01,2013-08-24 05:16:00,
2013-08-23 22:21:00,65.6,57.5,29.89,South,188,0.0,0.0,75,0.00,,---,0.00,VWS V14.01,2013-08-24 05:21:00,
2013-08-23 22:26:00,65.4,57.7,29.89,South,184,0.0,0.0,76,0.00,,---,0.00,VWS V14.01,2013-08-24 05:26:00,
2013-08-23 22:30:00,65.2,57.5,29.89,South,176,0.0,0.0,76,0.00,,---,0.00,VWS V14.01,2013-08-24 05:30:00,
2013-08-23 22:31:00,65.2,57.5,29.89,South,176,0.0,0.0,76,0.00,,---,0.00,VWS V14.01,2013-08-24 05:31:00,
2013-08-23 22:36:00,65.1,57.4,29.89,SSE,162,0.0,0.0,76,0.00,,---,0.00,VWS V14.01,2013-08-24 05:36:00,
2013-08-23 22:41:00,65.0,57.6,29.89,SSE,162,0.0,0.0,77,0.00,,---,0.00,VWS V14.01,2013-08-24 05:41:00,
2013-08-23 22:45:00,65.0,57.6,29.89,SSW,200,0.0,0.0,77,0.00,,---,0.00,VWS V14.01,2013-08-24 05:45:00,
2013-08-23 22:46:00,65.0,57.6,29.89,SSW,201,0.0,0.0,77,0.00,,---,0.00,VWS V14.01,2013-08-24 05:46:00,
2013-08-23 22:51:00,64.9,57.5,29.89,SSE,164,0.0,0.0,77,0.00,,---,0.00,VWS V14.01,2013-08-24 05:51:00,
2013-08-23 22:56:00,64.7,57.7,29.89,SSE,163,0.0,0.0,78,0.00,,---,0.00,VWS V14.01,2013-08-24 05:56:00,
2013-08-23 23:00:00,64.6,57.6,29.89,SSE,164,0.0,0.0,78,0.00,,---,0.00,VWS V14.01,2013-08-24 06:00:00,
2013-08-23 23:01:00,64.7,57.7,29.89,SSE,164,0.0,0.0,78,0.00,,---,0.00,VWS V14.01,2013-08-24 06:01:00,
2013-08-23 23:06:00,64.6,57.6,29.89,SSE,164,0.0,0.0,78,0.00,,---,0.00,VWS V14.01,2013-08-24 06:06:00,
2013-08-23 23:11:00,64.6,58.0,29.89,SE,143,0.0,0.0,79,0.00,,---,0.00,VWS V14.01,2013-08-24 06:11:00,
2013-08-23 23:15:00,64.6,58.0,29.89,South,183,0.0,0.0,79,0.00,,---,0.00,VWS V14.01,2013-08-24 06:15:00,
2013-08-23 23:16:00,64.6,58.0,29.89,South,190,0.0,0.0,79,0.00,,---,0.00,VWS V14.01,2013-08-24 06:16:00,
2013-08-23 23:21:00,64.5,57.8,29.89,SSW,198,0.0,0.0,79,0.00,,---,0.00,VWS V14.01,2013-08-24 06:21:00,
2013-08-23 23:26:00,64.4,58.1,29.89,SSE,168,0.0,0.0,80,0.00,,---,0.00,VWS V14.01,2013-08-24 06:26:00,
2013-08-23 23:30:00,64.4,58.1,29.89,South,175,0.0,0.0,80,0.00,,---,0.00,VWS V14.01,2013-08-24 06:30:00,
2013-08-23 23:31:00,64.3,58.0,29.89,South,175,0.0,0.0,80,0.00,,---,0.00,VWS V14.01,2013-08-24 06:31:00,
2013-08-23 23:36:00,64.3,58.0,29.89,SE,132,0.0,0.0,80,0.00,,---,0.00,VWS V14.01,2013-08-24 06:36:00,
2013-08-23 23:40:00,64.3,58.0,29.89,ESE,123,0.0,0.0,80,0.00,,---,0.00,VWS V14.01,2013-08-24 06:40:00,
2013-08-23 23:45:00,64.3,58.0,29.89,SW,227,0.0,0.0,80,0.00,,---,0.00,VWS V14.01,2013-08-24 06:45:00,
2013-08-23 23:50:00,64.1,57.8,29.89,South,186,0.0,0.0,80,0.00,,---,0.00,VWS V14.01,2013-08-24 06:50:00,
2013-08-23 23:55:00,64.0,57.7,29.89,South,184,0.0,0.0,80,0.00,,---,0.00,VWS V14.01,2013-08-24 06:55:00,